Flag for U.S.A. Weather past 2 weeks in Downey, California, U.S.A.

Now
58 °F

Mostly cloudy.


Feels Like: 56 °F
Forecast: 45 / 62 °F
Wind: 10 mph from Northwest

Location: Long Beach Airport

Current Time: Dec 25, 2014 at 3:33:13 AM

Latest Report: Dec 25, 2014 at 3:00 AM


Visibility: 9 mi

Pressure: 29.78 "Hg

Humidity: 78%

Dew point: 51 °F

Location of DowneyLocation

Historic Weather in Downey — Graph

°F

Downey temperature yesterday

Maximum temperature yesterday: 74 °F (at 11:53 AM)
Minimum temperature yesterday: 53 °F (at 4:53 AM)
Average temperature yesterday: 62 °F

Past Weeks' High & Low Weather Summary

 TemperatureHumidityPressure
High82 °F (Dec 23, 1:53 PM)100% (Dec 10, 1:53 AM)30.24 "Hg (Dec 10, 1:53 AM)
Low47 °F (Dec 15, 6:53 AM)27% (Dec 23, 1:53 PM)29.79 "Hg (Dec 25, 12:53 AM)
Average59 °F77%30.04 "Hg
* Reported Dec 10 1:02 AM — Dec 25 1:53 AM, Downey, Weather by CustomWeather, © 2014

Note: Actual official high and low records may vary slightly from our data, if they occured in-between our weather recording intervals... More about our weather records

Advertising

Downey weather history for previous 24 hours

 ConditionsComfort  
Time TempWeatherWind HumidityBarometerVisibility
1:53 AM
Dec 25
60 °FPassing clouds.10 mph80%29.79 "Hg10 mi
12:53 AM61 °FPassing clouds.5 mph81%29.79 "Hg10 mi
11:53 PM
Dec 24
61 °FPassing clouds.8 mph81%29.82 "Hg10 mi
10:53 PM60 °FPassing clouds.3 mph83%29.84 "Hg10 mi
9:53 PM60 °FPassing clouds.3 mph83%29.86 "Hg10 mi
8:53 PM59 °FClear.6 mph87%29.86 "Hg10 mi
7:53 PM62 °FClear.No wind86%29.86 "Hg10 mi
6:53 PM64 °FClear.5 mph61%29.88 "Hg10 mi
5:53 PM65 °FClear.3 mph61%29.90 "Hg10 mi
4:53 PM68 °FClear.3 mph42%29.90 "Hg10 mi
3:53 PM71 °FSunny.8 mph30%29.93 "Hg10 mi
2:53 PM71 °FSunny.7 mph41%29.94 "Hg10 mi
1:53 PM72 °FSunny.6 mph38%29.95 "Hg10 mi
12:53 PM74 °FSunny.6 mph31%29.97 "Hg10 mi
11:53 AM74 °FSunny.No wind28%30.00 "Hg10 mi
10:53 AM71 °FSunny.No wind32%30.04 "Hg10 mi
9:53 AM64 °FSunny.No wind52%30.07 "Hg10 mi
8:53 AM60 °FSunny.No wind56%30.06 "Hg10 mi
7:53 AM56 °FSunny.No wind58%30.06 "Hg10 mi
6:53 AM55 °FClear.3 mph57%30.07 "Hg10 mi
5:53 AM53 °FClear.3 mph66%30.06 "Hg10 mi
4:53 AM53 °FClear.No wind69%30.06 "Hg10 mi
3:53 AM57 °FClear.No wind55%30.07 "Hg10 mi
Weather by CustomWeather, © 2014

See weather overviewHow to use our weather pages